Dewpoint
32 26 23 23 22 21 15 13 10 11 12 8 5 5 5 6 9 8 9 8 8 10 12 15 19 29 32 33 61 63 63 67 67 67 67 66 64 66 65 66 64 68 67 66
32 26 25 25 21 19 17 14 12 13 12 8 6 4 6 8 7 7 7 10 11 13 15 15 13 23 31 36 51 61 64 65 67 67 67 66 65 66 66 65 66 65 68 67
31 28 27 24 21 17 15 13 12 12 12 10 8 6 5 6 6 6 6 7 7 8 13 15 14 16 29 42 44 51 61 65 66 67 67 67 67 66 65 65 65 66 68 68
30 30 27 24 22 19 14 14 13 13 10 8 10 7 6 5 3 4 4 6 6 7 14 15 14 18 38 45 51 53 55 60 65 67 67 66 66 65 65 65 66 65 68 68
26 27 27 25 21 21 18 17 15 13 10 9 8 7 6 6 4 4 4 6 6 10 13 14 14 29 53 59 60 60 59 59 58 66 66 66 66 66 66 66 66 66 68 68
26 27 27 25 24 22 20 18 17 17 14 10 11 8 6 6 5 5 5 7 12 19 19 22 40 59 61 61 61 61 61 58 56 58 65 66 65 65 65 65 65 66 67 67
26 24 26 26 23 22 21 18 15 13 11 9 11 10 10 10 9 9 7 7 16 19 38 49 56 59 60 60 60 61 61 61 59 58 63 65 65 65 64 65 65 65 65 65
24 23 23 23 22 20 20 18 16 11 10 10 12 10 9 11 10 9 10 11 17 27 49 51 54 58 60 60 60 60 61 63 65 65 65 65 65 65 65 64 64 65 64 64
23 22 22 21 20 21 20 18 18 16 16 15 14 12 13 11 9 12 12 19 34 42 48 50 52 59 60 60 61 61 62 62 63 64 64 64 65 64 64 63 63 63 63 63
28 23 22 20 19 19 20 20 17 17 13 12 13 12 11 10 14 13 17 16 31 39 43 47 56 60 60 60 61 62 62 62 63 63 64 64 64 64 63 63 62 62 62 62
28 27 23 23 15 16 17 17 18 19 17 14 12 13 15 15 21 21 21 20 26 40 40 45 58 60 60 60 61 61 62 62 62 63 63 63 63 63 62 62 61 61 61 62
29 26 25 24 23 19 18 16 18 16 17 17 15 14 17 15 17 19 25 24 24 32 39 48 58 59 60 60 60 60 60 61 61 61 62 62 62 61 61 60 60 60 60 60
34 26 22 22 22 21 20 17 18 18 18 17 16 16 18 18 18 20 18 20 25 27 34 51 58 58 59 59 59 59 59 59 60 60 60 60 60 60 59 60 60 60 59 58
40 37 33 25 23 19 18 19 18 18 17 16 17 18 19 19 18 17 20 21 24 30 38 52 57 58 58 58 58 58 58 58 58 59 59 60 60 59 59 58 57 55 55 54
38 33 37 37 36 24 21 20 19 18 18 16 17 19 19 20 22 21 25 28 36 38 39 44 52 57 57 57 57 57 57 57 58 59 58 58 57 56 55 55 54 53 52 52
37 32 35 33 37 35 27 23 20 18 18 18 16 15 21 20 20 21 25 31 32 36 38 39 45 52 57 57 56 57 57 57 58 56 55 56 55 54 53 52 51 51 51 51
33 33 31 26 32 35 32 31 24 20 19 19 17 18 16 18 21 21 21 25 30 32 37 38 40 50 53 56 56 56 57 57 55 54 55 53 53 52 52 51 50 49 48 47
30 31 32 28 28 22 33 35 32 24 21 21 19 17 19 18 18 21 24 22 22 25 32 37 40 45 52 56 56 56 55 54 54 53 53 51 50 50 49 47 45 43 43 42
30 29 27 25 24 24 27 30 31 26 23 22 21 19 18 19 20 20 23 25 27 31 35 35 40 50 53 54 54 54 53 53 53 52 50 48 46 43 40 38 38 39 40 39
30 30 29 24 21 17 23 31 35 28 23 23 22 22 22 23 20 18 21 25 26 31 35 39 50 54 53 53 53 53 52 51 49 44 43 41 39 38 38 40 38 39 39 39
24 26 26 25 23 23 21 20 22 23 25 25 24 23 22 22 23 25 27 31 39 45 46 52 53 53 53 53 53 51 47 42 40 39 39 39 38 37 38 40 41 41 41 41
20 24 27 28 25 22 28 28 29 29 31 28 27 27 26 26 35 38 42 46 48 49 52 53 53 53 51 50 44 41 40 39 38 38 38 39 39 40 40 39 40 40 39 38
25 24 21 24 23 25 23 32 35 34 29 29 28 28 29 28 37 40 44 47 50 51 52 52 50 42 38 39 39 38 37 37 37 36 37 38 39 39 39 38 37 39 39 38
24 25 25 25 24 29 34 36 32 34 31 31 34 33 30 34 42 44 47 48 47 41 39 37 36 35 36 36 37 37 37 37 37 37 37 38 37 38 38 38 37 35 35 35
26 25 25 26 31 26 26 34 37 33 35 34 35 37 39 43 43 45 46 44 42 35 33 33 35 35 36 37 37 37 37 36 35 35 37 37 37 37 36 36 36 36 35 35
30 29 25 25 29 36 35 35 37 36 36 36 35 37 40 44 44 44 44 42 39 34 33 36 34 34 35 36 36 35 35 34 34 34 35 36 36 36 35 34 34 34 34 33
Wind_Speed
17 19 27 25 21 21 16 21 25 19 32 19 27 26 27 25 19 18 18 21 22 24 24 17 15 21 21 19 28 29 29 25 26 21 23 19 26 16 18 17 24 20 24 26
20 36 25 19 21 23 28 26 31 23 24 14 16 27 18 18 14 20 18 23 27 25 23 22 22 14 20 17 24 26 26 24 26 23 23 17 20 16 17 17 17 22 21 25
30 17 24 24 25 27 26 30 23 23 30 22 12 13 16 13 13 18 22 25 22 25 27 25 23 20 19 22 25 26 28 27 25 22 17 10 12 8 15 18 20 20 22 22
26 28 23 32 31 26 27 22 21 23 22 22 3 18 17 16 23 28 31 25 31 29 18 24 24 16 18 22 18 18 19 20 20 24 23 25 24 22 20 19 16 17 19 22
28 30 29 30 36 28 29 17 21 23 21 17 29 16 11 15 21 27 21 19 24 28 19 20 22 13 17 19 18 13 8 7 11 22 23 23 21 16 15 15 20 16 15 18
34 23 25 38 31 23 27 22 28 23 15 23 25 21 23 24 22 23 28 24 27 22 18 15 12 26 22 17 15 10 5 6 10 11 20 26 23 18 16 14 15 15 15 16
32 37 29 31 26 27 26 16 20 18 20 32 13 19 30 11 26 32 34 26 15 18 16 22 29 24 20 17 13 10 7 1 8 14 16 19 22 22 21 20 19 16 15 12
31 27 37 26 42 31 30 24 17 20 27 29 17 22 23 27 36 31 24 31 21 16 25 27 25 22 19 16 13 10 6 5 6 9 12 13 14 16 15 17 17 18 17 16
26 29 15 33 33 35 37 30 32 24 21 8 13 21 17 34 29 27 27 21 23 26 26 25 21 22 20 17 15 12 8 6 5 7 9 10 9 12 14 14 14 16 15 16
17 16 33 31 39 33 35 27 28 27 32 35 17 24 17 9 18 29 27 26 24 26 27 23 22 23 18 18 15 13 11 8 7 9 10 11 11 13 14 15 15 14 13 15
37 25 13 12 37 44 37 34 21 17 22 28 31 30 20 22 11 8 18 19 18 24 24 22 24 20 21 18 18 16 14 12 10 10 12 14 14 14 14 14 14 15 14 15
37 18 41 39 26 20 40 39 34 26 22 35 37 29 4 20 17 7 4 15 14 22 23 25 26 25 23 21 19 17 14 14 12 11 13 14 14 15 16 16 15 15 16 14
27 28 34 27 29 35 22 27 36 37 24 31 36 44 27 30 26 14 12 13 17 20 23 24 24 24 23 21 20 19 17 15 14 13 14 14 14 15 15 16 15 13 16 15
8 15 17 40 39 31 21 35 29 43 42 37 33 32 18 29 38 33 25 24 22 25 24 27 25 25 24 23 23 20 18 18 16 14 13 14 13 13 14 14 15 16 16 18
8 10 17 25 32 34 40 34 31 34 43 45 39 38 33 28 23 23 12 9 19 23 25 27 26 26 25 23 21 21 20 20 17 14 12 12 13 16 16 17 15 15 15 16
2 11 9 18 27 33 32 44 42 36 37 44 39 37 31 26 26 18 10 14 21 21 25 26 25 27 28 27 26 22 21 21 19 17 16 15 16 16 17 18 19 19 17 15
2 4 8 26 17 31 32 44 44 48 33 34 45 41 26 27 27 32 28 16 18 18 25 25 26 31 29 30 28 27 25 22 22 21 19 19 19 18 18 17 16 16 16 14
12 13 8 18 17 31 16 32 41 46 45 30 34 35 36 36 32 24 23 32 28 27 26 26 26 23 24 27 27 25 26 24 25 24 21 20 19 18 17 17 16 15 14 14
20 21 17 20 26 24 27 22 39 44 52 48 39 36 41 33 20 21 32 28 22 22 22 24 24 23 25 29 28 30 27 24 25 24 21 19 20 18 18 17 14 11 12 11
25 24 24 23 25 26 18 21 28 35 47 38 38 35 33 24 23 37 25 16 21 25 24 21 20 22 25 23 26 28 25 23 23 23 24 24 22 19 18 16 14 9 11 9
26 25 36 34 27 18 31 38 37 40 24 41 41 42 40 32 20 24 22 22 18 18 18 19 26 29 25 25 26 24 24 23 22 24 22 19 19 19 18 13 11 10 8 4
23 16 23 25 23 31 22 32 32 44 35 33 27 25 33 28 19 12 10 16 19 21 22 24 24 22 20 23 26 25 24 23 24 24 24 22 20 14 12 9 5 3 6 7
30 31 27 23 18 17 30 29 33 36 21 30 33 37 31 34 26 25 23 19 19 21 20 19 25 24 19 20 24 27 22 25 25 24 21 18 15 10 7 7 7 12 9 9
22 25 32 38 38 39 36 25 26 37 28 26 14 18 33 21 25 22 23 24 23 21 23 23 25 24 22 20 20 25 24 23 23 21 19 15 12 9 9 9 10 11 12 12
22 14 30 33 39 35 35 25 28 38 12 3 5 10 8 20 21 26 24 23 23 23 22 23 23 23 21 22 22 21 21 22 21 18 16 15 13 12 11 11 12 13 11 10
22 36 35 40 31 18 28 34 38 30 9 13 7 4 10 20 19 22 24 23 25 25 24 24 23 24 21 20 20 20 19 20 20 18 15 13 12 11 10 9 7 4 6 6
Wind_Direction
230 222 222 224 225 243 248 246 253 252 250 251 252 220 216 231 248 243 224 221 231 232 235 235 250 239 201 189 178 182 180 181 179 181 182 192 202 195 192 186 200 187 193 197
232 221 219 230 234 238 244 256 263 284 281 283 280 218 216 222 242 257 244 237 233 233 228 222 233 238 206 182 166 170 180 176 183 187 189 191 197 196 184 191 195 197 188 194
216 224 213 224 235 239 240 236 250 258 283 289 294 273 239 241 241 250 253 247 241 239 230 221 223 233 216 172 158 160 179 180 181 184 178 165 173 185 193 197 203 198 189 191
231 229 229 214 232 237 244 243 246 253 261 267 39 284 270 258 250 255 254 250 241 237 220 207 211 224 198 169 150 147 148 169 179 177 180 186 188 195 204 202 201 197 186 185
223 213 213 233 225 225 246 252 250 252 255 262 271 271 248 253 267 272 270 263 236 226 212 211 213 198 145 132 122 119 129 155 173 190 187 187 198 194 192 187 191 191 178 177
239 233 211 228 238 234 233 239 256 273 272 253 246 236 263 241 241 261 274 271 241 208 212 221 154 128 128 117 114 119 123 213 231 209 197 190 187 176 169 159 163 164 162 165
235 235 229 234 243 246 240 230 228 244 240 242 233 255 245 236 229 245 251 256 231 194 165 142 137 139 135 128 123 116 70 158 237 221 198 187 185 181 177 167 159 165 164 172
225 227 223 227 225 225 232 223 215 219 229 243 250 251 241 227 239 245 244 253 206 170 147 145 144 144 140 134 120 117 119 112 96 133 151 155 168 178 181 180 169 174 176 171
218 233 220 224 231 216 232 235 231 240 264 271 234 256 268 250 249 241 239 160 137 142 152 155 150 148 143 141 142 146 164 160 158 147 153 159 164 166 169 164 171 170 167 167
245 258 221 238 218 235 221 226 219 222 230 239 243 258 246 257 245 235 199 175 166 154 146 149 147 150 151 145 140 145 151 178 182 186 193 183 172 160 158 153 164 171 165 164
230 245 253 269 226 218 222 229 226 219 221 225 245 251 237 259 294 4 233 199 168 163 161 155 153 149 146 142 147 152 163 163 167 167 161 156 155 148 145 148 152 156 152 160
217 228 243 246 259 250 221 224 222 216 222 217 226 239 199 222 239 338 262 183 178 173 177 161 154 150 150 152 154 161 171 168 172 160 151 151 146 145 144 146 149 148 150 151
239 226 236 252 248 261 246 243 217 215 220 225 222 242 237 275 269 271 278 252 219 198 171 156 152 157 156 156 162 169 169 167 167 162 159 156 155 150 153 153 154 155 151 152
247 256 232 237 230 237 239 231 240 210 220 233 234 253 224 224 238 256 262 245 213 199 171 162 162 164 165 167 167 169 168 165 168 170 170 167 166 162 155 152 152 146 144 145
185 253 266 258 272 236 245 251 246 234 213 222 232 239 233 230 237 238 237 206 171 160 165 167 168 175 171 165 164 172 170 170 172 178 174 173 156 142 135 135 138 132 128 126
107 270 244 289 262 269 254 241 248 251 226 219 229 234 235 232 237 243 246 235 193 193 184 183 174 169 173 170 173 169 170 171 171 164 162 150 140 139 133 126 124 125 127 130
271 248 263 273 275 257 256 246 246 242 242 227 224 233 236 235 232 237 244 241 245 227 201 196 185 179 173 175 170 172 171 167 160 155 150 144 138 135 134 141 142 145 143 139
216 251 267 275 266 257 272 241 249 248 245 249 238 230 235 239 240 247 240 243 246 242 233 207 196 180 171 164 168 162 161 157 149 149 150 141 140 147 153 148 147 141 140 146
223 230 245 255 268 282 288 278 239 241 240 241 244 242 235 242 237 231 232 227 224 221 210 196 185 173 161 159 156 154 156 149 145 148 146 147 149 151 140 139 132 123 128 127
231 226 226 240 249 257 251 278 268 255 237 241 239 246 254 250 246 247 249 236 240 231 213 194 162 148 146 148 146 149 152 151 149 146 142 138 135 139 135 134 131 114 109 104
215 218 226 237 242 253 253 253 270 277 242 233 234 234 241 244 238 263 256 225 197 167 161 148 150 158 154 148 145 146 146 146 135 126 119 117 123 126 127 123 117 110 104 105
245 222 223 232 237 238 231 250 233 251 247 242 245 252 258 252 218 192 179 160 155 153 145 142 140 140 141 142 138 139 138 132 126 124 122 121 119 113 115 129 135 183 192 200
239 235 241 229 236 232 250 239 248 249 246 234 249 237 235 240 211 186 167 153 141 133 128 127 130 126 124 132 139 134 134 129 125 124 124 121 120 125 138 163 193 215 200 206
249 250 241 247 246 248 253 250 269 272 229 224 238 238 231 204 166 154 143 139 132 126 123 121 121 124 121 121 125 127 131 127 124 125 127 130 138 160 179 189 207 220 223 225
253 268 253 260 258 254 260 254 253 250 245 260 205 213 139 145 154 145 144 139 133 126 125 123 118 115 112 114 119 126 127 127 128 130 136 148 163 184 198 207 210 218 226 224
254 253 250 243 224 243 259 259 251 223 153 264 275 110 154 152 152 140 144 144 138 134 130 121 119 119 122 123 126 131 135 135 134 137 146 162 178 191 201 207 226 250 244 248